User: anonymous   Login
Location: Cold Norton
(51.6667°N, 0.6667°E)
Time: 20:14:31
(UTC+00:00)
Language:

Timation 2 Rocket - Orbit

View from above orbital plane
View from above orbital plane
View from above satellite
View from above satellite

Ground track
Ground track

The orbit is defined by the following mean orbital elements,

1 04159U          26018.48308503 +.00000000 +00000-0 +67179-4 0 00004
2 04159  69.9612 176.2248 0113484 146.7885 214.0399 13.72882433    03
Epoch (UTC): 18 January 2026 11:35:38
Eccentricity: 0.0113484
inclination: 69.9612°
perigee height: 906 km
apogee height: 1073 km
right ascension of ascending node: 176.2248°
argument of perigee: 146.7885°
revolutions per day: 13.72882433
mean anomaly at epoch: 214.0399°

The dashed part of the orbit path shows where the satellite is in the earth's shadow,  

DLR